EW5967 Weather Reports


Display with metric or nautical units.
time (UTC)temp
F
wind
direction
speed
MPH
gust
MPH
rain 1hr
in
rain 24hr
in
rain mn
in
humidity
%
barometer
mb
20260903184041 86 206 1.0 8.0 0.00 0.00 0.00 15 1005.9
20260903183541 86 175 2.0 6.0 0.00 0.00 0.00 14 1006.0
20260903183100 85 239 1.0 6.0 0.00 0.00 0.00 15 1006.1
20260903182538 84 143 1.0 13.0 0.00 0.00 0.00 16 1006.2
20260903182037 84 134 2.0 16.0 0.00 0.00 0.00 16 1006.2
20260903181535 83 80 7.0 16.0 0.00 0.00 0.00 17 1006.1
20260903181040 83 150 3.0 11.0 0.00 0.00 0.00 17 1006.3
20260903180534 82 61 2.0 11.0 0.00 0.00 0.00 17 1006.3
20260903180037 82 101 2.0 9.0 0.00 0.00 0.00 17 1006.5
20260903175534 82 144 1.0 5.0 0.00 0.00 0.00 17 1006.5
20260903175036 82 88 1.0 4.0 0.00 0.00 0.00 16 1006.4
20260903174534 82 67 0.0 7.0 0.00 0.00 0.00 16 1006.4
20260903174032 82 130 3.0 7.0 0.00 0.00 0.00 17 1006.5
20260903173533 82 103 0.0 4.0 0.00 0.00 0.00 17 1006.6
20260903173031 82 91 1.0 8.0 0.00 0.00 0.00 17 1006.6
20260903172532 80 154 0.0 10.0 0.00 0.00 0.00 17 1006.5
20260903172030 80 133 2.0 10.0 0.00 0.00 0.00 17 1006.5
20260903171529 80 148 2.0 9.0 0.00 0.00 0.00 18 1006.5
20260903171029 80 138 4.0 10.0 0.00 0.00 0.00 19 1006.6
20260903170529 79 175 2.0 10.0 0.00 0.00 0.00 19 1006.6
20260903170027 79 171 3.0 9.0 0.00 0.00 0.00 18 1006.6
20260903165528 79 138 2.0 9.0 0.00 0.00 0.00 19 1006.6
20260903165026 79 97 3.0 8.0 0.00 0.00 0.00 19 1006.6
20260903164525 79 175 1.0 5.0 0.00 0.00 0.00 21 1006.5
20260903164024 78 41 0.0 4.0 0.00 0.00 0.00 22 1006.5
20260903163523 78 49 1.0 3.0 0.00 0.00 0.00 21 1006.5
20260903163021 77 43 0.0 4.0 0.00 0.00 0.00 22 1006.5
20260903162522 77 35 1.0 3.0 0.00 0.00 0.00 22 1006.5
20260903162021 76 32 0.0 5.0 0.00 0.00 0.00 23 1006.6
20260903161531 75 26 1.0 6.0 0.00 0.00 0.00 23 1006.6
20260903161020 75 39 2.0 6.0 0.00 0.00 0.00 24 1006.6
20260903160521 76 40 2.0 6.0 0.00 0.00 0.00 23 1006.6
20260903160022 76 84 1.0 5.0 0.00 0.00 0.00 22 1006.5
20260903155524 75 71 2.0 5.0 0.00 0.00 0.00 24 1006.5
20260903155024 75 47 1.0 5.0 0.00 0.00 0.00 24 1006.5
20260903154522 76 53 2.0 7.0 0.00 0.00 0.00 23 1006.5
20260903154025 76 88 1.0 7.0 0.00 0.00 0.00 22 1006.4
20260903153519 75 79 1.0 4.0 0.00 0.00 0.00 22 1006.5
20260903153018 76 92 0.0 4.0 0.00 0.00 0.00 23 1006.5
20260903152518 75 202 0.0 2.0 0.00 0.00 0.00 23 1006.5
20260903152021 75 202 0.0 2.0 0.00 0.00 0.00 23 1006.4
20260903151517 74 202 0.0 2.0 0.00 0.00 0.00 24 1006.4
20260903151019 74 202 0.0 3.0 0.00 0.00 0.00 24 1006.4
20260903150518 74 202 0.0 3.0 0.00 0.00 0.00 24 1006.5
20260903150018 73 194 0.0 1.0 0.00 0.00 0.00 25 1006.4
20260903145520 73 194 0.0 3.0 0.00 0.00 0.00 25 1006.4
20260903145018 72 194 0.0 2.0 0.00 0.00 0.00 25 1006.4
20260903144521 72 191 0.0 3.0 0.00 0.00 0.00 25 1006.4
20260903144017 72 190 0.0 4.0 0.00 0.00 0.00 26 1006.4
20260903143516 71 190 0.0 4.0 0.00 0.00 0.00 26 1006.4
20260903143018 71 162 0.0 2.0 0.00 0.00 0.00 26 1006.4
20260903142515 71 161 0.0 5.0 0.00 0.00 0.00 27 1006.3
20260903142018 71 145 0.0 5.0 0.00 0.00 0.00 27 1006.3
20260903141513 71 169 0.0 2.0 0.00 0.00 0.00 27 1006.2
20260903141012 70 169 0.0 1.0 0.00 0.00 0.00 26 1006.2
20260903140512 70 169 0.0 4.0 0.00 0.00 0.00 27 1006.1
20260903140015 70 171 0.0 4.0 0.00 0.00 0.00 26 1006.1
20260903135511 71 275 0.0 2.0 0.00 0.00 0.00 26 1006.0
20260903135011 70 275 0.0 1.0 0.00 0.00 0.00 25 1005.9
20260903134511 70 275 0.0 0.0 0.00 0.00 0.00 25 1005.9
20260903134010 69 275 0.0 3.0 0.00 0.00 0.00 25 1005.8
20260903133510 69 274 0.0 3.0 0.00 0.00 0.00 24 1005.7
20260903133017 69 271 0.0 2.0 0.00 0.00 0.00 24 1005.7
20260903132509 70 271 0.0 0.0 0.00 0.00 0.00 23 1005.6
20260903132006 70 271 0.0 3.0 0.00 0.00 0.00 23 1005.5
20260903131507 71 271 0.0 3.0 0.00 0.00 0.00 22 1005.5
20260903131005 72 200 0.0 3.0 0.00 0.00 0.00 21 1005.5
20260903130505 72 201 0.0 6.0 0.00 0.00 0.00 21 1005.4
20260903130006 73 198 2.0 6.0 0.00 0.00 0.00 20 1005.4
20260903125505 72 190 2.0 6.0 0.00 0.00 0.00 21 1005.4
20260903125005 72 192 2.0 9.0 0.00 0.00 0.00 21 1005.5
20260903124503 72 193 3.0 9.0 0.00 0.00 0.00 21 1005.4
20260903124005 72 182 4.0 8.0 0.00 0.00 0.00 22 1005.4
20260903123506 72 189 3.0 7.0 0.00 0.00 0.00 22 1005.3
20260903123005 71 191 2.0 7.0 0.00 0.00 0.00 22 1005.3
20260903122502 71 177 3.0 7.0 0.00 0.00 0.00 22 1005.2
20260903122002 71 184 3.0 6.0 0.00 0.00 0.00 22 1005.2
20260903121502 71 203 0.0 4.0 0.00 0.00 0.00 22 1005.2
20260903121002 71 204 0.0 5.0 0.00 0.00 0.00 22 1005.1
20260903120501 71 200 1.0 6.0 0.00 0.00 0.00 22 1005.1
20260903115600 71 198 2.0 7.0 0.00 0.00 0.00 21 1005.1
20260903115059 71 202 3.0 7.0 0.00 0.00 0.00 21 1005.2
20260903114601 72 180 1.0 7.0 0.00 0.00 0.00 21 1005.2
20260903114058 71 196 3.0 8.0 0.00 0.00 0.00 21 1005.2
20260903113601 72 187 3.0 8.0 0.00 0.00 0.00 21 1005.2
20260903113057 72 198 3.0 8.0 0.00 0.00 0.00 21 1005.2
20260903112557 72 208 3.0 8.0 0.00 0.00 0.00 21 1005.2
20260903112056 72 205 4.0 8.0 0.00 0.00 0.00 21 1005.3
20260903111555 72 202 1.0 6.0 0.00 0.00 0.00 20 1005.3
20260903111055 73 205 3.0 8.0 0.00 0.00 0.00 20 1005.4
20260903110557 72 232 2.0 8.0 0.00 0.00 0.00 20 1005.4
20260903110053 72 202 1.0 6.0 0.00 0.00 0.00 20 1005.5
20260903105557 73 209 1.0 6.0 0.00 0.00 0.00 20 1005.5
20260903105053 73 211 2.0 8.0 0.00 0.00 0.00 20 1005.6
20260903104555 73 198 3.0 8.0 0.00 0.00 0.00 20 1005.6
20260903104152 72 227 2.0 5.0 0.00 0.00 0.00 20 1005.7
20260903103551 73 204 1.0 7.0 0.00 0.00 0.00 21 1005.7
20260903103051 72 198 2.0 5.0 0.00 0.00 0.00 21 1005.7
20260903102552 72 184 1.0 5.0 0.00 0.00 0.00 22 1005.7
20260903102049 72 181 2.0 5.0 0.00 0.00 0.00 21 1005.7
20260903101551 72 180 3.0 6.0 0.00 0.00 0.00 21 1005.8
20260903101048 73 178 3.0 6.0 0.00 0.00 0.00 21 1005.8
20260903100548 73 188 2.0 5.0 0.00 0.00 0.00 21 1005.8
20260903100046 73 201 0.0 3.0 0.00 0.00 0.00 20 1005.9
20260903095545 73 201 1.0 5.0 0.00 0.00 0.00 20 1005.8
20260903095044 74 215 0.0 5.0 0.00 0.00 0.00 20 1005.8
20260903094546 74 248 0.0 5.0 0.00 0.00 0.00 20 1005.9
20260903094043 74 269 1.0 12.0 0.00 0.00 0.00 20 1005.7
20260903093544 74 252 0.0 12.0 0.00 0.00 0.00 20 1005.8
20260903093049 74 240 1.0 4.0 0.00 0.00 0.00 20 1005.8
20260903092541 74 219 1.0 7.0 0.00 0.00 0.00 20 1005.8
20260903092041 75 213 2.0 7.0 0.00 0.00 0.00 19 1005.8
20260903091553 74 226 1.0 8.0 0.00 0.00 0.00 19 1005.9
20260903091044 74 254 0.0 7.0 0.00 0.00 0.00 19 1005.9
20260903090539 75 260 1.0 7.0 0.00 0.00 0.00 19 1006.0
20260903090038 75 252 1.0 7.0 0.00 0.00 0.00 19 1006.0
20260903085539 75 244 1.0 7.0 0.00 0.00 0.00 18 1006.0
20260903085037 75 246 1.0 7.0 0.00 0.00 0.00 18 1006.0
20260903084537 75 240 1.0 5.0 0.00 0.00 0.00 17 1006.0
20260903084036 75 230 1.0 4.0 0.00 0.00 0.00 17 1006.0
20260903083538 75 232 1.0 4.0 0.00 0.00 0.00 17 1006.0
20260903083035 75 238 1.0 5.0 0.00 0.00 0.00 17 1006.0
20260903082534 75 238 1.0 7.0 0.00 0.00 0.00 17 1006.0
20260903082034 75 226 1.0 7.0 0.00 0.00 0.00 17 1006.0
20260903081534 75 230 1.0 4.0 0.00 0.00 0.00 17 1005.9
20260903081036 75 230 1.0 3.0 0.00 0.00 0.00 17 1006.0
20260903080534 75 234 0.0 5.0 0.00 0.00 0.00 17 1005.9
20260903080033 76 263 0.0 9.0 0.00 0.00 0.00 16 1005.9
20260903075532 76 267 2.0 9.0 0.00 0.00 0.00 16 1005.8
20260903075032 76 243 2.0 8.0 0.00 0.00 0.00 16 1005.9
20260903074529 76 239 2.0 12.0 0.00 0.00 0.00 15 1005.9
20260903074028 77 266 1.0 12.0 0.00 0.00 0.00 15 1005.9
20260903073528 77 249 3.0 11.0 0.00 0.00 0.00 15 1005.8
20260903073042 77 263 3.0 10.0 0.00 0.00 0.00 14 1005.8
20260903072525 77 276 3.0 11.0 0.00 0.00 0.00 14 1005.8
20260903072025 77 250 3.0 12.0 0.00 0.00 0.00 14 1005.9
20260903071524 77 309 2.0 11.0 0.00 0.00 0.00 13 1005.8
20260903071024 77 272 2.0 8.0 0.00 0.00 0.00 13 1005.9
20260903070525 77 229 2.0 11.0 0.00 0.00 0.00 13 1006.0
20260903070020 77 238 2.0 7.0 0.00 0.00 0.00 12 1006.0
20260903065520 77 250 1.0 8.0 0.00 0.00 0.00 12 1005.9
20260903065019 77 256 2.0 8.0 0.00 0.00 0.00 12 1005.9
20260903064519 77 243 2.0 6.0 0.00 0.00 0.00 11 1005.9
20260903064020 77 230 2.0 6.0 0.00 0.00 0.00 12 1006.0
20260903063520 77 242 2.0 7.0 0.00 0.00 0.00 12 1006.0
20260903063019 78 210 2.0 9.0 0.00 0.00 0.00 12 1006.1
20260903062522 77 244 3.0 9.0 0.00 0.00 0.00 11 1006.0
20260903062019 77 202 1.0 4.0 0.00 0.00 0.00 11 1005.9
20260903061519 77 186 0.0 5.0 0.00 0.00 0.00 11 1006.0
20260903061019 78 186 2.0 5.0 0.00 0.00 0.00 10 1006.1
20260903060518 78 193 0.0 6.0 0.00 0.00 0.00 10 1006.1
20260903060019 78 190 2.0 6.0 0.00 0.00 0.00 10 1006.0
20260903055520 77 173 0.0 4.0 0.00 0.00 0.00 10 1006.0
20260903055018 78 190 0.0 3.0 0.00 0.00 0.00 11 1005.9
20260903054518 78 195 0.0 3.0 0.00 0.00 0.00 10 1005.9
20260903054020 79 198 0.0 4.0 0.00 0.00 0.00 10 1006.0
20260903053517 79 233 0.0 4.0 0.00 0.00 0.00 10 1006.0
20260903053018 79 186 2.0 5.0 0.00 0.00 0.00 10 1006.0
20260903052517 79 184 1.0 5.0 0.00 0.00 0.00 9 1006.0
20260903052017 79 180 0.0 2.0 0.00 0.00 0.00 9 1006.0
20260903051516 79 188 0.0 2.0 0.00 0.00 0.00 9 1006.0
20260903051016 79 188 0.0 3.0 0.00 0.00 0.00 9 1006.0
20260903050516 79 188 1.0 5.0 0.00 0.00 0.00 9 1006.0
20260903050017 79 209 2.0 5.0 0.00 0.00 0.00 9 1006.0
20260903045517 79 186 0.0 6.0 0.00 0.00 0.00 9 1005.9
20260903045016 79 190 3.0 9.0 0.00 0.00 0.00 10 1005.9
20260903044517 79 142 1.0 9.0 0.00 0.00 0.00 10 1005.9
20260903044016 79 113 0.0 3.0 0.00 0.00 0.00 10 1005.9
20260903043516 79 113 0.0 4.0 0.00 0.00 0.00 10 1005.8
20260903043015 80 123 1.0 5.0 0.00 0.00 0.00 9 1005.8
20260903042515 80 159 0.0 5.0 0.00 0.00 0.00 9 1005.8
20260903042015 80 35 0.0 4.0 0.00 0.00 0.00 8 1005.7
20260903041515 80 211 0.0 11.0 0.00 0.00 0.00 9 1005.5
20260903041015 81 211 4.0 11.0 0.00 0.00 0.00 8 1005.4
20260903040514 81 205 5.0 14.0 0.00 0.00 0.00 8 1005.2
20260903040021 81 239 5.0 14.0 0.00 0.00 0.00 8 1005.1
20260903035515 81 252 6.0 18.0 0.00 0.00 0.00 8 1005.0
20260903035014 81 246 6.0 14.0 0.00 0.00 0.00 8 1004.8
20260903034613 81 220 7.0 14.0 0.00 0.00 0.00 8 1004.7
20260903034012 81 232 6.0 13.0 0.00 0.00 0.00 8 1004.7
20260903033515 82 213 6.0 15.0 0.00 0.00 0.00 8 1004.7
20260903033012 81 216 8.0 13.0 0.00 0.00 0.00 8 1004.7
20260903032512 81 261 5.0 14.0 0.00 0.00 0.00 8 1004.9
20260903032010 81 216 6.0 14.0 0.00 0.00 0.00 8 1005.0
20260903031510 82 213 5.0 13.0 0.00 0.00 0.00 7 1005.1
20260903031009 82 225 5.0 13.0 0.00 0.00 0.00 7 1005.1
20260903030509 82 218 5.0 9.0 0.00 0.00 0.00 7 1005.2
20260903030009 82 245 3.0 9.0 0.00 0.00 0.00 7 1005.2
20260903025508 82 219 4.0 9.0 0.00 0.00 0.00 7 1005.2
20260903025008 82 225 4.0 10.0 0.00 0.00 0.00 7 1005.2
20260903024508 82 218 5.0 10.0 0.00 0.00 0.00 7 1005.2
20260903024008 83 242 5.0 10.0 0.00 0.00 0.00 7 1005.2
20260903023507 83 240 3.0 10.0 0.00 0.00 0.00 7 1005.2
20260903023007 83 222 5.0 10.0 0.00 0.00 0.00 7 1005.2
20260903022511 83 215 4.0 11.0 0.00 0.00 0.00 7 1005.3
20260903022006 83 207 4.0 10.0 0.00 0.00 0.00 6 1005.3
20260903021607 83 260 2.0 12.0 0.00 0.00 0.00 6 1005.4
20260903021006 83 248 5.0 13.0 0.00 0.00 0.00 6 1005.5
20260903020506 83 238 5.0 10.0 0.00 0.00 0.00 6 1005.5
20260903020010 84 198 5.0 10.0 0.00 0.00 0.00 6 1005.5
20260903015505 84 221 2.0 10.0 0.00 0.00 0.00 6 1005.5
20260903015005 84 242 4.0 10.0 0.00 0.00 0.00 6 1005.5
20260903014505 84 214 3.0 7.0 0.00 0.00 0.00 6 1005.5
20260903014006 84 219 2.0 6.0 0.00 0.00 0.00 6 1005.6
20260903013505 84 221 1.0 5.0 0.00 0.00 0.00 6 1005.6
20260903013005 85 213 1.0 5.0 0.00 0.00 0.00 6 1005.7
20260903012504 85 231 0.0 9.0 0.00 0.00 0.00 5 1005.7
20260903012004 86 242 4.0 10.0 0.00 0.00 0.00 5 1005.7
20260903011509 86 233 3.0 10.0 0.00 0.00 0.00 5 1005.7
20260903011003 86 212 2.0 10.0 0.00 0.00 0.00 6 1005.6
20260903010503 86 217 3.0 11.0 0.00 0.00 0.00 6 1005.5
20260903010003 87 200 3.0 11.0 0.00 0.00 0.00 6 1005.6
20260903005503 87 195 6.0 9.0 0.00 0.00 0.00 6 1005.4
20260903005003 87 268 3.0 10.0 0.00 0.00 0.00 6 1005.4
20260903004502 87 219 4.0 10.0 0.00 0.00 0.00 6 1005.4
20260903004003 88 195 4.0 9.0 0.00 0.00 0.00 6 1005.4
20260903003503 88 223 2.0 7.0 0.00 0.00 0.00 6 1005.4
20260903003003 88 200 2.0 9.0 0.00 0.00 0.00 6 1005.4
20260903002502 88 223 2.0 9.0 0.00 0.00 0.00 6 1005.3
20260903002001 88 212 2.0 7.0 0.00 0.00 0.00 6 1005.3
20260903001501 88 204 1.0 11.0 0.00 0.00 0.00 6 1005.4
20260903001000 88 227 5.0 11.0 0.00 0.00 0.00 6 1005.5
20260903000502 88 171 2.0 17.0 0.00 0.00 0.00 6 1005.5
20260903000101 88 219 4.0 17.0 0.00 0.00 0.00 6 1005.4
20260902235600 88 227 2.0 10.0 0.00 0.00 0.00 6 1005.5
20260902235059 88 217 4.0 15.0 0.00 0.00 0.00 6 1005.6
20260902234600 88 174 4.0 15.0 0.00 0.00 0.00 6 1005.5
20260902234100 88 238 6.0 14.0 0.00 0.00 0.00 6 1005.5
20260902233559 88 198 4.0 10.0 0.00 0.00 0.00 6 1005.6
20260902233104 89 208 4.0 8.0 0.00 0.00 0.00 6 1005.7
20260902232558 89 273 3.0 11.0 0.00 0.00 0.00 5 1005.7
20260902232058 88 251 5.0 10.0 0.00 0.00 0.00 6 1005.6
20260902231558 88 196 5.0 17.0 0.00 0.00 0.00 5 1005.7
20260902231057 89 219 6.0 13.0 0.00 0.00 0.00 5 1005.7
20260902230556 89 219 6.0 15.0 0.00 0.00 0.00 5 1005.7
20260902230104 89 207 5.0 15.0 0.00 0.00 0.00 5 1005.7
20260902225556 88 171 2.0 12.0 0.00 0.00 0.00 5 1005.6
20260902225057 89 236 6.0 13.0 0.00 0.00 0.00 5 1005.7
20260902224558 88 167 6.0 13.0 0.00 0.00 0.00 5 1005.8
20260902224055 88 207 4.0 13.0 0.00 0.00 0.00 5 1005.8
20260902223555 88 220 6.0 15.0 0.00 0.00 0.00 5 1005.9
20260902223114 89 179 6.0 15.0 0.00 0.00 0.00 5 1006.0
20260902222554 89 196 7.0 16.0 0.00 0.00 0.00 5 1006.0
20260902222058 88 216 5.0 16.0 0.00 0.00 0.00 5 1006.1
20260902221552 89 196 4.0 13.0 0.00 0.00 0.00 5 1006.1
20260902221055 88 220 5.0 19.0 0.00 0.00 0.00 5 1006.2
20260902220652 88 182 5.0 19.0 0.00 0.00 0.00 5 1006.2
20260902220054 88 226 5.0 15.0 0.00 0.00 0.00 5 1006.3
20260902215550 89 200 4.0 14.0 0.00 0.00 0.00 5 1006.4
20260902215052 89 225 7.0 12.0 0.00 0.00 0.00 5 1006.4
20260902214552 89 237 7.0 14.0 0.00 0.00 0.00 5 1006.5
20260902214050 89 182 5.0 18.0 0.00 0.00 0.00 5 1006.6
20260902213550 88 239 7.0 18.0 0.00 0.00 0.00 5 1006.6
20260902213047 88 148 4.0 13.0 0.00 0.00 0.00 5 1006.7
20260902212547 88 168 7.0 12.0 0.00 0.00 0.00 5 1006.8
20260902212046 88 198 4.0 10.0 0.00 0.00 0.00 5 1006.8
20260902211545 88 258 5.0 17.0 0.00 0.00 0.00 5 1006.8
20260902211046 88 186 4.0 17.0 0.00 0.00 0.00 5 1006.9
20260902210546 88 200 7.0 14.0 0.00 0.00 0.00 5 1007.0
20260902210045 88 198 5.0 19.0 0.00 0.00 0.00 6 1007.0
20260902205544 87 263 6.0 19.0 0.00 0.00 0.00 5 1007.0
20260902205044 88 169 9.0 18.0 0.00 0.00 0.00 5 1007.0
20260902204559 88 225 3.0 12.0 0.00 0.00 0.00 6 1007.1
20260902204043 87 207 6.0 13.0 0.00 0.00 0.00 5 1007.2
20260902203542 87 209 8.0 13.0 0.00 0.00 0.00 6 1007.2
20260902203041 87 180 6.0 14.0 0.00 0.00 0.00 6 1007.2
20260902202539 87 169 7.0 16.0 0.00 0.00 0.00 6 1007.3
20260902202039 87 187 9.0 20.0 0.00 0.00 0.00 6 1007.3
20260902201540 87 200 9.0 20.0 0.00 0.00 0.00 5 1007.5
20260902201042 87 190 8.0 18.0 0.00 0.00 0.00 5 1007.6
20260902200537 87 195 8.0 18.0 0.00 0.00 0.00 6 1007.4
20260902200037 86 209 9.0 16.0 0.00 0.00 0.00 6 1007.4
20260902195536 86 190 8.0 17.0 0.00 0.00 0.00 6 1007.6
20260902195037 86 144 8.0 16.0 0.00 0.00 0.00 6 1007.6
20260902194535 86 190 10.0 19.0 0.00 0.00 0.00 6 1007.6
20260902194035 86 214 6.0 18.0 0.00 0.00 0.00 6 1007.6
20260902193538 86 164 10.0 18.0 0.00 0.00 0.00 5 1007.5
20260902193035 86 207 6.0 22.0 0.00 0.00 0.00 5 1007.6
20260902192535 86 196 11.0 22.0 0.00 0.00 0.00 6 1007.7
20260902192034 86 195 9.0 16.0 0.00 0.00 0.00 6 1007.9
20260902191535 86 166 9.0 16.0 0.00 0.00 0.00 6 1007.9
20260902191035 86 211 7.0 14.0 0.00 0.00 0.00 6 1007.8
20260902190534 85 192 5.0 16.0 0.00 0.00 0.00 7 1007.9
20260902190036 86 177 8.0 15.0 0.00 0.00 0.00 6 1008.0
20260902185634 86 189 5.0 12.0 0.00 0.00 0.00 6 1008.0
20260902185033 86 180 4.0 16.0 0.00 0.00 0.00 6 1008.1
20260902184535 86 209 6.0 16.0 0.00 0.00 0.00 5 1008.3